Weather History for EGPF - February, 2013

Change the Weather History Date:

Thursday, February 21, 2013

  Actual Average Record
Temperature  
Mean Temperature 32 °F -  
Max Temperature 39 °F 46 °F 51 °F (2002)
Min Temperature 26 °F 33 °F 26 °F (2004)
Degree Days  
Heating Degree Days 32    
Moisture  
Dew Point 25 °F    
Average Humidity 71    
Maximum Humidity 86    
Minimum Humidity 56    
Precipitation  
Precipitation 0.00 in - - ()
Sea Level Pressure  
Sea Level Pressure 30.30 in    
Wind  
Wind Speed 8 mph ()    
Max Wind Speed 12 mph    
Max Gust Speed 22 mph    
Visibility 6.2 miles    
Events      
Averages and records for this station are not official NWS values.
T = Trace of Precipitation, MM = Missing Value Source: Averaged Metar Reports

Daily Weather History Graph

Daily Weather History Graph

Search for Another Location

Airport or City:

Trip Planner

Search our weather history database for the weather conditions in past years. The results will help you decide how hot, cold, wet, or windy it might be!

Date:

Astronomy

Feb. 21, 2013 Rise Set
Actual Time 7:28 AM GMT 5:35 PM GMT
Civil Twilight 6:50 AM GMT 6:13 PM GMT
Nautical Twilight 6:07 AM GMT 6:56 PM GMT
Astronomical Twilight 5:24 AM GMT 7:39 PM GMT
Moon 1:06 PM GMT (2/21) 4:54 AM GMT (2/21)
Length of Visible Light 11h 22m
Length of Day
10h 06m
Waxing Gibbous, 82% of the Moon is Illuminated
Feb 21
Waxing Gibbous
Feb 25
Full
Mar 4
Last Quarter
Mar 11
New
Mar 19
First Quarter

Hourly Weather History & Observations

Time (GMT) Temp. Windchill Dew Point Humidity Pressure Visibility Wind Dir Wind Speed Gust Speed Precip Events Conditions
12:20 AM 30.2 °F 22.6 °F 24.8 °F 80% 30.30 in - ENE 8.1 mph - N/A   Clear
12:50 AM 28.4 °F 22.2 °F 24.8 °F 86% 30.33 in 6.2 mi NE 5.8 mph - N/A   Scattered Clouds
1:20 AM 28.4 °F 21.2 °F 24.8 °F 86% 30.33 in 6.2 mi NE 6.9 mph - N/A   Scattered Clouds
1:50 AM 30.2 °F 23.4 °F 24.8 °F 80% 30.33 in 6.2 mi ENE 6.9 mph - N/A   Scattered Clouds
2:20 AM 30.2 °F 22.6 °F 24.8 °F 80% 30.33 in 6.2 mi ENE 8.1 mph - N/A   Scattered Clouds
2:50 AM 28.4 °F 21.2 °F 24.8 °F 86% 30.30 in 6.2 mi East 6.9 mph - N/A   Scattered Clouds
3:20 AM 28.4 °F 21.2 °F 24.8 °F 86% 30.30 in 6.2 mi ENE 6.9 mph - N/A   Unknown
3:50 AM 26.6 °F 20.0 °F 23.0 °F 86% 30.30 in 6.2 mi ENE 5.8 mph - N/A   Unknown
4:20 AM 28.4 °F 22.2 °F 23.0 °F 80% 30.30 in 6.2 mi East 5.8 mph - N/A   Unknown
4:50 AM 26.6 °F 18.2 °F 23.0 °F 86% 30.30 in - ENE 8.1 mph - N/A   Clear
5:20 AM 28.4 °F 21.2 °F 23.0 °F 80% 30.30 in - ENE 6.9 mph - N/A   Clear
5:50 AM 28.4 °F 21.2 °F 23.0 °F 80% 30.30 in - ENE 6.9 mph - N/A   Clear
6:20 AM 28.4 °F 19.7 °F 23.0 °F 80% 30.30 in - ENE 9.2 mph - N/A   Clear
6:50 AM 26.6 °F 19.1 °F 23.0 °F 86% 30.30 in - ENE 6.9 mph - N/A   Clear
7:20 AM 28.4 °F 19.7 °F 24.8 °F 86% 30.30 in - East 9.2 mph 21.9 mph N/A   Clear
7:50 AM 28.4 °F 20.4 °F 24.8 °F 86% 30.33 in - ENE 8.1 mph - N/A   Clear
8:20 AM 28.4 °F 20.4 °F 24.8 °F 86% 30.33 in - ENE 8.1 mph - N/A   Clear
8:50 AM 30.2 °F 21.9 °F 24.8 °F 80% 30.33 in - ENE 9.2 mph - N/A   Clear
9:20 AM 32.0 °F 23.6 °F 26.6 °F 80% 30.33 in - ENE 10.4 mph - N/A   Clear
9:50 AM 33.8 °F 25.8 °F 26.6 °F 75% 30.33 in - ENE 10.4 mph - N/A   Clear
10:20 AM 35.6 °F 28.6 °F 26.6 °F 70% 30.30 in - East 9.2 mph - N/A   Clear
10:50 AM 35.6 °F 27.5 °F 26.6 °F 70% 30.30 in - East 11.5 mph - N/A   Clear
11:20 AM 37.4 °F 30.3 °F 26.6 °F 65% 30.30 in - ESE 10.4 mph - N/A   Clear
11:50 AM 39.2 °F 32.0 °F 26.6 °F 61% 30.30 in 6.2 mi East 11.5 mph - N/A   Mostly Cloudy
12:20 PM 37.4 °F 29.8 °F 26.6 °F 65% 30.30 in 6.2 mi ESE 11.5 mph - N/A   Scattered Clouds
12:50 PM 39.2 °F 32.5 °F 26.6 °F 61% 30.30 in 6.2 mi ESE 10.4 mph - N/A   Scattered Clouds
1:20 PM 39.2 °F 32.0 °F 26.6 °F 61% 30.30 in 6.2 mi ESE 11.5 mph - N/A   Scattered Clouds
1:50 PM 39.2 °F 32.0 °F 24.8 °F 56% 30.30 in 6.2 mi ESE 11.5 mph - N/A   Mostly Cloudy
2:20 PM 39.2 °F 32.5 °F 24.8 °F 56% 30.27 in 6.2 mi ESE 10.4 mph - N/A   Mostly Cloudy
2:50 PM 39.2 °F 32.5 °F 24.8 °F 56% 30.27 in 6.2 mi ESE 10.4 mph - N/A   Mostly Cloudy
3:20 PM 37.4 °F 30.3 °F 24.8 °F 60% 30.27 in 6.2 mi SE 10.4 mph - N/A   Mostly Cloudy
3:50 PM 37.4 °F 30.3 °F 24.8 °F 60% 30.27 in 6.2 mi ESE 10.4 mph - N/A   Mostly Cloudy
4:20 PM 37.4 °F 30.3 °F 24.8 °F 60% 30.27 in 6.2 mi ESE 10.4 mph - N/A   Mostly Cloudy
4:50 PM 37.4 °F 30.8 °F 24.8 °F 60% 30.27 in 6.2 mi SE 9.2 mph - N/A   Mostly Cloudy
5:20 PM 37.4 °F 29.8 °F 24.8 °F 60% 30.27 in 6.2 mi ESE 11.5 mph - N/A   Mostly Cloudy
5:50 PM 37.4 °F 30.3 °F 24.8 °F 60% 30.27 in 6.2 mi ESE 10.4 mph - N/A   Mostly Cloudy
6:20 PM 35.6 °F 29.2 °F 24.8 °F 65% 30.27 in 6.2 mi SE 8.1 mph - N/A   Mostly Cloudy
6:50 PM 35.6 °F 28.6 °F 24.8 °F 65% 30.27 in 6.2 mi SE 9.2 mph - N/A   Mostly Cloudy
7:20 PM 35.6 °F 29.9 °F 24.8 °F 65% 30.27 in 6.2 mi SE 6.9 mph - N/A   Mostly Cloudy
7:50 PM 35.6 °F 28.6 °F 24.8 °F 65% 30.27 in 6.2 mi ESE 9.2 mph - N/A   Mostly Cloudy
8:20 PM 35.6 °F 29.2 °F 23.0 °F 60% 30.27 in 6.2 mi ESE 8.1 mph - N/A   Mostly Cloudy
8:50 PM 35.6 °F 29.2 °F 23.0 °F 60% 30.27 in 6.2 mi East 8.1 mph - N/A   Mostly Cloudy
9:20 PM 35.6 °F 29.2 °F 23.0 °F 60% 30.30 in 6.2 mi ESE 8.1 mph - N/A   Mostly Cloudy
9:50 PM 35.6 °F 27.5 °F 23.0 °F 60% 30.30 in 6.2 mi ESE 11.5 mph - N/A   Mostly Cloudy
10:20 PM 35.6 °F 28.6 °F 23.0 °F 60% 30.30 in 6.2 mi ESE 9.2 mph - N/A   Mostly Cloudy
10:50 PM 33.8 °F 27.0 °F 23.0 °F 65% 30.30 in 6.2 mi ESE 8.1 mph - N/A   Mostly Cloudy
11:20 PM 33.8 °F 28.6 °F 23.0 °F 65% 30.30 in 6.2 mi ESE 5.8 mph - N/A   Mostly Cloudy
11:50 PM 33.8 °F 28.6 °F 23.0 °F 65% 30.30 in 6.2 mi ESE 5.8 mph - N/A   Mostly Cloudy